sat.trackr.live / text

‹ back to catalog

HAWK-7C

NORAD 56200 · 2023-054Y

PAYLOAD ACTIVE UNKNOWN

§ Identity

Operator
Country
US
Launch date
2023-04-15
Launch site
AFWTR
Launch vehicle
Mass (kg)
RCS (m²)

Purposes: tech_demo

External: N2YO · Heavens-Above · Gunter

§ Orbital elements

Epoch: 2026-09-20T03:28:16.997088Z

Period
94.23 min
Inclination
97.2543°
Eccentricity
0.0004069
Mean motion
15.28203600 rev/d
Perigee alt
478.4 km
Apogee alt
484.0 km
Semi-major
6,859.3 km
B*
6.5761e-5
RAAN
147.0811°
Arg perigee
71.2624°
Mean anomaly
288.9057°
Rev number
19,152

§ Raw data

HAWK-7C1 56200U 23054Y   26263.14464117  .00001736  00000+0  65761-4 0  99992 56200  97.2543 147.0811 0004069  71.2624 288.9057 15.28203600191522

JSON: /api/v1/satellites/56200 · /tle

For live sub-satellite position, see the globe view (requires WebGL).

§ Visibility from observer

Set your observer location to see the next 7 days of passes ≥ 10°. The values pass through the URL so the page stays shareable.

No JS? Fill the form by hand. The geolocation button needs JavaScript.